Regional Weather Roundup
Issued by NWS

Home | Current Version | Previous Version | Text Only | Print | Product List | Glossary On
Versions: 1 2 3 4 5 6 7 8 9 10 11 12 13 14 15 16 17 18 19 20 21 22 23 24 25 26 27 28 29 30 31 32 33 34 35 36 37 38 39 40 41 42 43 44 45 46 47 48 49 50
000
ASUS44 KLIX 310610
RWRLA
LOUISIANA WEATHER ROUNDUP
NATIONAL WEATHER SERVICE NEW ORLEANS LA
100 AM CDT SUN AUG 31 2014

NOTE: "FAIR" INDICATES FEW OR NO CLOUDS BELOW 12,000 FEET WITH NO
      SIGNIFICANT WEATHER AND/OR OBSTRUCTIONS TO VISIBILITY.
      SKY/WX - SKY CONDITION AND SIGNIFICANT WEATHER.
      TMP - AIR TEMPERATURE.    DP   - DEWPOINT TEMPERATURE.
      RH  - RELATIVE HUMIDITY.  PRES - PRESSURE.
      HX  - HEAT INDEX.         WCI  - WIND CHILL INDEX.

*  THESE STATIONS ARE NOT NWS OR FAA STATIONS AND ARE NOT UNDER
   NWS QUALITY CONTROL.

LAZ040-048-061>063-065-066-069-310700-
SOUTHEAST LOUISIANA

CITY           SKY/WX    TMP DP  RH WIND       PRES   REMARKS
N.O. AUDUBON     N/A     76  76  99 MISG        N/A
6HR MIN TEMP:  75; 6HR MAX TEMP:  79; 6HR PCP:  0.04;

N.O. INTL ARPT MOCLDY    76  73  91 CALM      30.03F
6HR MIN TEMP:  76; 6HR MAX TEMP:  80; 6HR PCP:  0.18;

N.O. LAKEFRONT   N/A    N/A N/A N/A MISG      30.04F
N.O. DOWNTOWN* FAIR      84  72  65 SE3       30.04F
6HR MIN TEMP:  84; 6HR MAX TEMP:  91; 6HR PCP:  0.03;

SLIDELL        FAIR      74  72  93 CALM      30.04F
6HR MIN TEMP:  74; 6HR MAX TEMP:  76;

BATON ROUGE    FAIR      73  71  93 NE3       30.02S
6HR MIN TEMP:  73; 6HR MAX TEMP:  75; 6HR PCP: TRACE;

BOOTHVILLE     CLOUDY    83  80  91 SE5       30.05S HX  95
6HR MIN TEMP:  83; 6HR MAX TEMP:  86;

BELLE CHASSE   FAIR      76  72  87 CALM      30.02F
6HR MIN TEMP:  74; 6HR MAX TEMP:  80;

BOGALUSA*        N/A     75  71  88 CALM      30.06S
6HR MIN TEMP:  75; 6HR MAX TEMP:  77;

GALLIANO*      NOT AVBL
NEW ROADS*     FAIR      73  72  98 CALM      30.02S
6HR MIN TEMP:  73; 6HR MAX TEMP:  74; 6HR PCP:  0.01;

GONZALES*      FAIR      74  74 100 CALM      30.00F
6HR MIN TEMP:  74; 6HR MAX TEMP:  75; 6HR PCP:  0.07;

HAMMOND*       FAIR      73  70  88 CALM      30.04F
HOUMA*         FAIR      73  70  91 CALM      30.02F
6HR MIN TEMP:  73; 6HR MAX TEMP:  74; 6HR PCP:  0.02;

PORT FOURCHON* CLOUDY    79  73  83 NE5       30.05F

$$

LAZ041-044-053-054-310700-
SOUTHWEST LOUISIANA

CITY           SKY/WX    TMP DP  RH WIND       PRES   REMARKS
LAKE CHARLES   FAIR      76  74  93 S5        29.99S
6HR MIN TEMP:  75; 6HR MAX TEMP:  76; 6HR PCP:  0.01;

LAFAYETTE      FAIR      75  73  93 CALM      30.00S
6HR MIN TEMP:  74; 6HR MAX TEMP:  78; 6HR PCP: TRACE;

PATTERSON        N/A     75  73  94 SE9       30.02F
6HR MIN TEMP:  73; 6HR MAX TEMP:  75;

SALT POINT       N/A     81  76  84 SE8       29.99F
6HR MIN TEMP:  78; 6HR MAX TEMP:  81; 6HR PCP:  0.01;

NEW IBERIA     FAIR      76  73  91 CALM      30.00S
6HR MIN TEMP:  74; 6HR MAX TEMP:  77; 6HR PCP:  0.02;

CHENAULT AIRPK FAIR      75  74  98 SE3       30.00S
6HR MIN TEMP:  75; 6HR MAX TEMP:  76;


$$

LAZ027-028-310700-
CENTRAL LOUISIANA

CITY           SKY/WX    TMP DP  RH WIND       PRES   REMARKS
FORT POLK      FAIR      74  73  97 S3        29.99S
6HR MIN TEMP:  73; 6HR MAX TEMP:  76;

ALEXANDRIA INT FAIR      73  72  96 CALM      29.97F
6HR MIN TEMP:  73; 6HR MAX TEMP:  77;

ALEXANDRIA     FAIR      75  72  90 CALM      30.00S
6HR MIN TEMP:  75; 6HR MAX TEMP:  78; 6HR PCP: TRACE;


$$

LAZ001-002-310700-
NORTHWEST LOUISIANA

CITY           SKY/WX    TMP DP  RH WIND       PRES   REMARKS
SHREVEPORT     MOCLDY    77  73  87 S5        29.97R
6HR MIN TEMP:  76; 6HR MAX TEMP:  81;

BARKSDALE AFB  MOCLDY    76  73  89 S9        29.98R
6HR MIN TEMP:  76; 6HR MAX TEMP:  82;

DTN SHREVEPORT MOCLDY    79  73  83 S7        29.98R
6HR MIN TEMP:  77; 6HR MAX TEMP:  82;


$$

LAZ014-016-310700-
NORTHEAST LOUISIANA

CITY           SKY/WX    TMP DP  RH WIND       PRES   REMARKS
MONROE         FAIR      74  72  93 S6        30.00F
6HR MIN TEMP:  74; 6HR MAX TEMP:  77;

TALLULAH       FAIR      74  71  91 S6        30.01S
6HR MIN TEMP:  74; 6HR MAX TEMP:  76;


$$



USA.gov is the U.S. government's official web portal to all federal, state and local government web resources and services.